Temp
-9 -9 -9 -9 -8 -8 -8 -9 -9 -9 -9 -9 -9 -9 -9 -9 -9 -9 -9 -9 -9 -10 -10 -10 -10 -10 -10 -10 -10 -10 -11 -11 -11 -11 -11 -11 -11 -11 -11 -12 -12 -12 -12 -12 -12 -12 -12 -12 -12 -12 -12 -12
-9 -9 -9 -8 -8 -8 -8 -9 -9 -9 -9 -9 -9 -9 -9 -9 -9 -9 -9 -10 -10 -10 -10 -10 -10 -10 -10 -10 -11 -11 -11 -11 -11 -11 -11 -11 -12 -12 -12 -12 -12 -12 -12 -12 -12 -12 -12 -12 -12 -12 -12 -12
-9 -9 -8 -8 -8 -8 -8 -9 -9 -9 -9 -9 -9 -9 -9 -9 -9 -9 -10 -10 -10 -10 -10 -10 -10 -10 -10 -11 -11 -11 -11 -11 -11 -11 -11 -12 -12 -12 -12 -12 -12 -12 -12 -12 -12 -12 -12 -12 -12 -12 -12 -12
-9 -8 -8 -8 -8 -9 -9 -9 -9 -9 -9 -9 -9 -9 -9 -9 -9 -10 -10 -10 -10 -10 -10 -10 -10 -10 -11 -11 -11 -11 -11 -11 -11 -11 -12 -12 -12 -12 -12 -12 -12 -12 -12 -12 -12 -12 -12 -12 -12 -12 -12 -12
-9 -8 -8 -8 -9 -9 -9 -9 -9 -9 -9 -9 -9 -9 -9 -9 -10 -10 -10 -10 -10 -10 -10 -10 -11 -11 -11 -11 -11 -11 -11 -11 -11 -12 -12 -12 -12 -12 -12 -12 -12 -12 -12 -12 -12 -12 -12 -12 -12 -12 -12 -12
-9 -9 -9 -9 -9 -9 -9 -9 -9 -9 -9 -9 -9 -9 -10 -10 -10 -10 -10 -10 -10 -10 -11 -11 -11 -11 -11 -11 -11 -11 -11 -12 -12 -12 -12 -12 -12 -12 -12 -12 -12 -12 -12 -12 -12 -12 -12 -12 -12 -12 -12 -12
-9 -9 -9 -9 -9 -9 -9 -9 -9 -9 -9 -9 -10 -10 -10 -10 -10 -10 -10 -11 -11 -11 -11 -11 -11 -11 -11 -11 -12 -12 -12 -12 -12 -12 -12 -12 -12 -12 -12 -12 -12 -12 -12 -12 -12 -12 -12 -12 -12 -12 -12 -12
-9 -9 -9 -9 -9 -9 -9 -9 -9 -9 -10 -10 -10 -10 -10 -10 -10 -10 -11 -11 -11 -11 -11 -11 -11 -11 -11 -11 -12 -12 -12 -12 -12 -12 -12 -12 -12 -12 -12 -12 -12 -12 -12 -12 -12 -12 -12 -12 -12 -12 -12 -12
-9 -9 -9 -9 -9 -9 -9 -9 -10 -10 -10 -10 -10 -10 -10 -10 -11 -11 -11 -11 -11 -11 -11 -11 -11 -11 -11 -11 -11 -11 -12 -12 -12 -12 -12 -12 -12 -12 -12 -12 -12 -12 -12 -12 -12 -12 -12 -12 -12 -12 -12 -12
-9 -9 -9 -9 -9 -9 -10 -10 -10 -10 -10 -10 -10 -10 -10 -10 -11 -11 -11 -11 -11 -11 -11 -11 -11 -11 -11 -11 -11 -11 -12 -12 -12 -12 -12 -12 -12 -12 -12 -12 -12 -12 -12 -12 -12 -12 -12 -12 -12 -12 -12 -12
-9 -9 -9 -9 -10 -10 -10 -10 -10 -10 -10 -10 -10 -10 -10 -10 -11 -11 -11 -11 -11 -11 -11 -11 -11 -11 -12 -12 -12 -12 -12 -12 -12 -12 -12 -12 -12 -12 -12 -12 -12 -12 -12 -12 -12 -12 -13 -13 -12 -12 -13 -13
-9 -9 -10 -10 -10 -10 -10 -10 -10 -10 -10 -10 -10 -10 -10 -11 -11 -11 -11 -11 -11 -11 -11 -11 -11 -12 -12 -12 -12 -12 -12 -12 -12 -12 -12 -12 -12 -12 -12 -12 -12 -12 -12 -12 -13 -13 -13 -13 -13 -13 -13 -13
-10 -10 -10 -10 -10 -10 -10 -10 -10 -10 -10 -10 -10 -10 -11 -11 -11 -11 -11 -11 -11 -11 -11 -11 -11 -12 -12 -12 -12 -12 -12 -12 -12 -12 -12 -12 -12 -12 -12 -12 -13 -13 -13 -13 -13 -13 -13 -13 -13 -13 -13 -13
-10 -10 -10 -10 -10 -10 -10 -10 -10 -10 -10 -10 -10 -10 -11 -11 -11 -11 -11 -11 -11 -11 -11 -11 -11 -12 -12 -12 -12 -12 -12 -12 -12 -12 -12 -12 -12 -12 -13 -13 -13 -13 -13 -13 -13 -13 -13 -13 -13 -13 -13 -13
-10 -10 -10 -10 -10 -10 -10 -10 -10 -10 -10 -10 -10 -10 -11 -11 -11 -11 -11 -11 -11 -11 -11 -11 -12 -12 -12 -12 -12 -12 -12 -12 -12 -12 -12 -12 -13 -13 -13 -13 -13 -13 -13 -13 -13 -13 -13 -13 -13 -13 -13 -13
-10 -10 -10 -10 -10 -10 -10 -10 -11 -11 -11 -10 -10 -11 -11 -11 -11 -11 -11 -11 -11 -11 -11 -11 -12 -12 -12 -12 -12 -12 -12 -12 -12 -12 -13 -13 -13 -13 -13 -13 -13 -13 -13 -13 -13 -13 -13 -13 -13 -13 -13 -13
-10 -10 -10 -10 -10 -10 -10 -11 -11 -11 -11 -11 -11 -11 -11 -11 -11 -11 -11 -11 -11 -11 -11 -11 -11 -12 -12 -12 -12 -12 -12 -12 -12 -12 -13 -13 -13 -13 -13 -13 -13 -13 -13 -13 -13 -13 -13 -13 -13 -14 -14 -14
-10 -10 -10 -10 -10 -10 -11 -11 -11 -11 -11 -11 -11 -11 -11 -11 -11 -11 -11 -11 -11 -11 -11 -11 -11 -12 -12 -12 -12 -12 -12 -12 -12 -12 -12 -13 -13 -13 -13 -13 -13 -13 -13 -13 -13 -14 -14 -14 -14 -14 -14 -14
-10 -10 -10 -11 -11 -11 -11 -11 -11 -11 -11 -11 -11 -11 -11 -11 -11 -11 -11 -11 -11 -11 -11 -11 -11 -12 -12 -12 -12 -12 -12 -12 -12 -12 -12 -13 -13 -13 -13 -13 -13 -13 -13 -13 -13 -14 -14 -14 -14 -14 -15 -15
-10 -10 -11 -11 -11 -11 -11 -11 -11 -11 -11 -11 -11 -11 -11 -11 -11 -11 -11 -11 -11 -11 -11 -11 -11 -12 -12 -12 -12 -12 -12 -12 -12 -13 -13 -13 -13 -13 -13 -13 -13 -13 -13 -13 -13 -14 -14 -14 -15 -15 -15 -15
-10 -11 -11 -11 -11 -11 -11 -11 -11 -11 -11 -12 -11 -11 -11 -11 -11 -11 -11 -11 -11 -11 -11 -11 -11 -12 -12 -12 -12 -12 -12 -13 -13 -13 -13 -13 -13 -13 -13 -13 -13 -13 -14 -13 -14 -14 -14 -15 -15 -15 -15 -15
-11 -11 -11 -11 -11 -11 -11 -11 -12 -12 -12 -12 -12 -12 -11 -11 -11 -11 -11 -11 -11 -11 -11 -11 -12 -12 -12 -12 -12 -12 -13 -13 -13 -13 -13 -13 -13 -13 -13 -13 -14 -14 -14 -14 -14 -14 -14 -15 -15 -15 -15 -15
-11 -11 -11 -11 -12 -12 -12 -12 -12 -12 -12 -12 -12 -12 -12 -12 -12 -11 -12 -12 -11 -11 -12 -12 -12 -12 -12 -12 -12 -12 -13 -13 -13 -13 -13 -14 -14 -14 -14 -14 -14 -14 -14 -14 -14 -14 -15 -15 -15 -15 -16 -16
-11 -11 -11 -12 -12 -12 -12 -12 -12 -12 -12 -12 -12 -12 -12 -12 -12 -12 -12 -12 -12 -12 -12 -12 -12 -12 -12 -12 -12 -13 -13 -13 -13 -14 -14 -14 -14 -14 -14 -14 -14 -14 -14 -14 -14 -15 -15 -15 -15 -16 -16 -16
-11 -11 -11 -11 -11 -12 -12 -12 -12 -12 -12 -12 -12 -12 -12 -12 -12 -12 -12 -12 -12 -12 -12 -12 -12 -12 -13 -13 -13 -13 -13 -13 -14 -14 -14 -14 -14 -14 -14 -14 -14 -15 -15 -15 -15 -15 -15 -15 -15 -16 -16 -16
-11 -11 -11 -11 -11 -11 -12 -12 -12 -12 -12 -12 -12 -12 -12 -12 -12 -12 -12 -12 -12 -12 -12 -12 -13 -13 -13 -13 -13 -13 -13 -14 -14 -14 -14 -14 -14 -14 -14 -14 -15 -15 -15 -15 -15 -15 -15 -15 -16 -16 -16 -16
-11 -11 -11 -11 -11 -12 -12 -12 -12 -12 -12 -12 -12 -12 -12 -12 -12 -12 -12 -13 -13 -13 -13 -13 -13 -13 -13 -14 -14 -14 -14 -14 -14 -14 -15 -15 -15 -15 -15 -15 -15 -15 -15 -16 -16 -16 -16 -16 -16 -16 -16 -16
-12 -12 -12 -12 -12 -12 -12 -12 -12 -12 -12 -12 -13 -13 -13 -13 -13 -13 -13 -13 -13 -13 -13 -13 -14 -14 -14 -14 -14 -14 -14 -14 -15 -15 -15 -15 -15 -15 -15 -15 -16 -16 -16 -16 -17 -17 -16 -16 -16 -16 -16 -16
-12 -12 -12 -12 -12 -12 -12 -12 -12 -12 -12 -13 -13 -13 -13 -13 -13 -13 -13 -13 -13 -13 -14 -14 -14 -14 -14 -14 -14 -15 -15 -15 -15 -15 -15 -15 -15 -16 -16 -16 -16 -16 -16 -16 -17 -17 -17 -17 -17 -16 -16 -17
-12 -12 -12 -12 -12 -12 -12 -12 -12 -12 -13 -13 -13 -13 -13 -13 -13 -13 -13 -13 -13 -14 -14 -14 -14 -14 -15 -15 -15 -15 -15 -15 -15 -15 -16 -16 -16 -16 -16 -16 -16 -16 -16 -17 -17 -17 -17 -18 -17 -17 -17 -17
-12 -12 -12 -12 -12 -12 -12 -12 -12 -13 -13 -13 -13 -13 -13 -13 -13 -13 -13 -13 -14 -14 -14 -14 -14 -15 -15 -15 -15 -15 -15 -16 -16 -16 -16 -16 -16 -16 -16 -17 -17 -16 -17 -17 -17 -17 -17 -18 -18 -18 -18 -18
Height
5819 5817 5816 5814 5812 5811 5809 5808 5807 5805 5804 5802 5801 5799 5798 5796 5794 5793 5792 5790 5789 5787 5786 5784 5783 5781 5779 5777 5776 5774 5772 5770 5768 5767 5765 5763 5761 5759 5757 5755 5753 5751 5749 5747 5745 5744 5742 5740 5738 5736 5734 5732
5817 5815 5813 5812 5810 5809 5807 5806 5805 5803 5801 5800 5798 5797 5795 5794 5792 5790 5789 5787 5786 5784 5783 5781 5779 5778 5776 5774 5772 5770 5768 5767 5765 5763 5761 5759 5757 5755 5753 5751 5749 5747 5745 5743 5741 5739 5737 5735 5733 5731 5729 5727
5814 5813 5811 5810 5808 5807 5805 5804 5802 5801 5799 5797 5796 5794 5792 5791 5789 5788 5786 5784 5783 5781 5779 5778 5776 5774 5772 5770 5769 5767 5765 5763 5761 5759 5757 5754 5753 5751 5749 5747 5745 5743 5741 5739 5736 5734 5732 5730 5729 5727 5725 5723
5812 5811 5809 5808 5806 5805 5803 5801 5800 5798 5796 5795 5793 5791 5789 5788 5786 5785 5783 5781 5780 5778 5776 5774 5772 5771 5769 5767 5765 5763 5761 5758 5756 5754 5752 5750 5748 5746 5744 5742 5740 5738 5736 5734 5732 5730 5728 5726 5724 5722 5720 5718
5810 5808 5807 5805 5804 5802 5800 5798 5797 5795 5793 5792 5790 5788 5787 5785 5783 5782 5780 5778 5776 5774 5773 5771 5769 5767 5765 5763 5761 5758 5756 5754 5752 5750 5748 5746 5743 5741 5739 5737 5734 5732 5730 5728 5726 5724 5722 5721 5719 5717 5715 5713
5808 5806 5805 5803 5801 5799 5798 5796 5794 5792 5790 5789 5787 5785 5784 5782 5780 5778 5776 5775 5773 5771 5769 5767 5765 5763 5761 5759 5756 5754 5752 5750 5748 5745 5743 5741 5738 5736 5734 5731 5729 5727 5725 5723 5721 5719 5717 5715 5713 5712 5710 5708
5806 5804 5802 5800 5798 5797 5795 5793 5791 5789 5788 5786 5784 5783 5781 5779 5777 5775 5773 5771 5769 5767 5765 5763 5761 5759 5756 5754 5752 5750 5747 5745 5743 5740 5738 5736 5733 5731 5729 5726 5724 5722 5720 5718 5716 5714 5712 5710 5708 5706 5704 5702
5803 5802 5800 5798 5796 5794 5792 5790 5788 5787 5785 5783 5781 5779 5777 5775 5773 5771 5769 5767 5765 5763 5761 5759 5757 5754 5752 5750 5747 5745 5743 5740 5738 5735 5733 5731 5728 5726 5724 5722 5719 5717 5715 5713 5711 5708 5706 5704 5702 5700 5698 5696
5801 5799 5797 5795 5793 5791 5789 5787 5785 5784 5782 5780 5778 5776 5774 5772 5770 5767 5765 5763 5761 5759 5757 5755 5752 5750 5748 5745 5743 5740 5738 5735 5733 5730 5728 5726 5724 5721 5719 5717 5714 5712 5710 5708 5705 5703 5701 5698 5696 5694 5692 5691
5798 5796 5794 5792 5790 5788 5786 5784 5782 5780 5778 5776 5774 5772 5770 5768 5766 5764 5762 5759 5757 5755 5753 5751 5748 5746 5743 5740 5738 5735 5733 5731 5728 5726 5723 5721 5719 5716 5714 5712 5709 5707 5704 5702 5700 5697 5695 5693 5691 5689 5687 5685
5795 5793 5791 5789 5787 5785 5783 5781 5779 5777 5774 5772 5770 5768 5766 5764 5762 5760 5758 5755 5753 5751 5749 5747 5744 5741 5739 5736 5733 5730 5728 5726 5723 5721 5718 5716 5714 5711 5709 5706 5704 5701 5699 5697 5694 5692 5689 5687 5684 5682 5681 5678
5792 5790 5788 5786 5783 5781 5779 5777 5775 5773 5770 5768 5766 5764 5763 5761 5758 5756 5754 5751 5749 5747 5745 5742 5739 5737 5734 5731 5728 5725 5723 5721 5718 5716 5713 5711 5708 5706 5703 5701 5698 5696 5693 5691 5688 5686 5683 5680 5678 5676 5674 5672
5789 5787 5785 5782 5780 5778 5776 5773 5771 5769 5767 5765 5763 5761 5759 5757 5754 5752 5749 5747 5744 5742 5740 5737 5734 5732 5729 5726 5723 5720 5718 5716 5713 5710 5708 5705 5703 5700 5697 5695 5692 5690 5687 5684 5682 5679 5676 5674 5672 5669 5667 5665
5786 5784 5781 5779 5777 5775 5772 5770 5768 5765 5763 5761 5759 5757 5755 5752 5750 5747 5745 5742 5740 5737 5735 5732 5729 5726 5724 5721 5718 5715 5713 5710 5707 5704 5702 5699 5696 5694 5691 5688 5686 5683 5680 5677 5675 5673 5670 5667 5665 5663 5661 5658
5783 5780 5778 5776 5774 5771 5769 5767 5764 5762 5760 5758 5756 5753 5751 5748 5745 5743 5740 5737 5735 5732 5729 5727 5724 5721 5718 5715 5712 5709 5707 5704 5701 5698 5696 5693 5690 5687 5685 5682 5679 5676 5673 5670 5668 5665 5663 5660 5658 5656 5654 5651
5779 5777 5775 5772 5770 5768 5766 5763 5761 5758 5756 5754 5752 5749 5746 5744 5741 5738 5735 5732 5729 5726 5724 5721 5718 5715 5712 5709 5706 5703 5700 5697 5694 5692 5689 5686 5683 5680 5677 5675 5672 5669 5666 5663 5660 5658 5656 5653 5651 5649 5646 5643
5776 5774 5771 5769 5766 5764 5762 5760 5757 5755 5753 5750 5748 5745 5742 5739 5735 5732 5730 5727 5723 5720 5717 5715 5712 5709 5706 5703 5700 5697 5694 5691 5687 5685 5682 5679 5676 5673 5670 5667 5665 5662 5659 5656 5653 5650 5648 5646 5644 5641 5639 5635
5773 5770 5768 5765 5763 5761 5758 5756 5753 5751 5748 5746 5743 5740 5737 5733 5730 5727 5724 5721 5717 5714 5712 5709 5706 5703 5700 5697 5694 5690 5687 5684 5681 5678 5675 5671 5669 5666 5663 5660 5657 5654 5651 5649 5645 5642 5640 5638 5636 5634 5630 5627
5769 5767 5764 5762 5759 5757 5754 5751 5749 5746 5744 5741 5738 5734 5731 5728 5724 5721 5718 5715 5712 5709 5706 5703 5700 5696 5693 5690 5687 5684 5681 5677 5674 5671 5667 5664 5661 5658 5655 5652 5649 5645 5643 5640 5637 5634 5631 5629 5627 5625 5622 5619
5766 5763 5761 5758 5755 5753 5750 5747 5744 5742 5739 5736 5732 5729 5726 5722 5719 5716 5713 5710 5706 5703 5700 5697 5693 5690 5686 5683 5680 5677 5674 5670 5667 5663 5660 5656 5652 5650 5647 5643 5640 5637 5634 5632 5629 5626 5622 5621 5619 5616 5613 5610
5762 5759 5757 5754 5751 5749 5746 5743 5740 5737 5734 5731 5727 5724 5720 5717 5714 5711 5707 5704 5701 5697 5693 5690 5687 5683 5679 5676 5673 5669 5666 5663 5659 5656 5652 5649 5645 5641 5638 5635 5631 5629 5625 5623 5621 5618 5614 5611 5609 5607 5604 5601
5757 5755 5752 5750 5747 5745 5742 5739 5736 5733 5729 5726 5722 5719 5715 5712 5709 5705 5701 5698 5694 5691 5687 5683 5680 5676 5672 5669 5665 5662 5658 5655 5651 5647 5644 5641 5637 5633 5630 5626 5623 5620 5617 5614 5612 5609 5606 5602 5599 5597 5594 5591
5753 5751 5748 5746 5743 5740 5737 5734 5731 5727 5724 5720 5717 5713 5709 5706 5703 5699 5695 5691 5688 5684 5680 5676 5672 5669 5664 5660 5657 5653 5650 5646 5642 5639 5635 5632 5628 5624 5620 5617 5614 5610 5607 5605 5602 5599 5597 5594 5590 5587 5584 5581
5750 5747 5744 5742 5739 5736 5732 5729 5726 5722 5719 5715 5711 5707 5703 5700 5696 5693 5689 5685 5681 5677 5673 5669 5665 5661 5657 5652 5649 5645 5641 5638 5633 5630 5626 5623 5619 5615 5611 5608 5604 5600 5596 5594 5592 5590 5588 5584 5581 5578 5574 5570
5746 5743 5741 5737 5734 5731 5727 5724 5721 5716 5713 5709 5705 5701 5697 5693 5690 5686 5682 5678 5674 5670 5666 5662 5657 5653 5649 5644 5640 5637 5633 5629 5625 5620 5616 5613 5609 5606 5602 5598 5594 5589 5586 5582 5580 5579 5577 5575 5571 5568 5565 5560
5742 5739 5736 5732 5729 5726 5722 5719 5716 5711 5707 5703 5699 5694 5691 5687 5683 5679 5675 5671 5667 5663 5658 5654 5650 5645 5641 5636 5632 5628 5624 5620 5616 5611 5607 5603 5599 5596 5592 5589 5584 5579 5574 5570 5568 5566 5565 5564 5561 5559 5554 5550
5737 5734 5731 5727 5724 5721 5716 5713 5709 5705 5701 5697 5692 5688 5685 5681 5676 5672 5668 5664 5660 5656 5651 5646 5642 5637 5633 5628 5624 5620 5616 5611 5607 5602 5598 5593 5589 5586 5581 5578 5574 5569 5564 5558 5555 5552 5550 5551 5548 5549 5545 5538
5732 5729 5726 5722 5719 5715 5710 5707 5703 5698 5694 5690 5686 5682 5678 5674 5670 5666 5661 5657 5652 5648 5643 5638 5634 5629 5625 5620 5615 5611 5606 5602 5598 5592 5588 5583 5578 5574 5571 5568 5563 5558 5553 5548 5543 5537 5536 5536 5533 5534 5533 5526
5727 5724 5720 5717 5713 5709 5704 5700 5697 5693 5688 5684 5679 5675 5671 5667 5663 5658 5654 5649 5645 5640 5635 5630 5625 5620 5616 5611 5606 5601 5597 5592 5588 5583 5577 5572 5568 5563 5559 5556 5553 5548 5542 5538 5534 5526 5521 5520 5517 5518 5518 5512
5722 5719 5715 5712 5708 5704 5699 5695 5691 5687 5682 5677 5672 5668 5663 5659 5655 5651 5646 5641 5636 5631 5626 5621 5617 5612 5607 5602 5597 5592 5587 5582 5577 5572 5567 5562 5557 5552 5547 5542 5540 5538 5532 5525 5522 5517 5510 5505 5500 5500 5501 5496
5717 5713 5710 5706 5702 5698 5693 5689 5684 5680 5676 5671 5667 5662 5657 5652 5647 5643 5638 5633 5628 5623 5618 5612 5607 5602 5597 5592 5587 5582 5577 5572 5567 5562 5557 5552 5546 5541 5536 5530 5526 5524 5520 5513 5509 5504 5499 5494 5488 5481 5480 5478
Wind_Speed
28 28 28 28 28 27 27 28 28 28 29 29 30 30 30 30 30 30 30 30 30 30 31 32 33 33 33 34 34 34 35 35 35 36 37 38 39 39 40 41 41 42 42 42 43 43 44 44 44 44 44 43
28 28 28 28 28 28 28 28 29 29 29 30 30 30 30 30 30 30 30 30 31 32 33 33 34 34 35 35 35 36 36 37 37 38 39 39 40 41 41 42 42 42 43 43 44 44 44 45 45 45 45 44
28 28 28 28 28 28 28 28 29 29 29 30 30 30 30 30 30 30 31 32 33 33 34 35 35 36 36 37 37 37 38 38 39 39 40 41 41 41 42 42 43 43 44 44 44 45 45 45 45 45 45 45
28 28 28 28 28 28 28 28 28 29 29 30 30 30 30 31 31 31 32 33 33 34 35 36 36 37 37 38 38 39 39 39 40 40 41 41 42 42 43 43 43 44 44 45 45 45 45 45 45 45 45 45
29 29 29 28 28 28 28 28 29 29 29 30 30 30 30 31 31 32 32 33 34 34 35 36 37 38 38 39 39 40 40 40 41 41 42 42 43 43 43 44 44 45 45 46 46 46 46 46 46 45 45 45
29 29 28 28 28 28 28 29 29 29 29 30 30 30 30 31 31 32 33 33 34 35 36 37 38 39 39 40 40 41 41 42 42 42 43 43 44 44 45 45 46 46 47 47 47 47 47 47 47 46 46 46
28 28 28 28 28 28 29 29 29 29 29 29 30 30 30 31 32 32 33 35 35 36 37 38 39 40 40 41 42 42 43 43 44 44 44 45 45 46 46 47 47 48 48 49 49 49 48 48 48 48 47 47
27 27 27 28 28 29 29 29 29 29 29 30 30 30 31 32 33 34 35 36 37 38 39 40 41 42 42 43 44 44 45 45 46 46 46 47 47 48 48 48 49 49 50 50 50 50 50 49 49 49 49 49
26 26 27 28 29 29 29 29 29 29 30 30 31 31 33 34 35 36 37 38 39 40 41 42 43 43 44 45 45 46 46 47 47 48 48 49 49 50 50 50 51 51 51 52 51 51 51 50 50 50 50 50
26 27 28 29 29 29 29 29 29 30 31 31 32 33 34 35 37 38 39 40 41 42 43 44 44 45 46 46 47 48 48 49 49 50 50 51 51 52 52 53 53 53 54 54 53 53 52 52 51 51 51 51
27 28 29 29 29 29 29 30 30 31 31 32 33 35 36 37 39 40 41 42 43 44 44 45 46 47 48 49 49 50 50 51 51 52 53 53 54 54 55 55 56 56 56 56 56 55 55 54 53 53 53 53
29 29 30 30 29 29 29 30 31 32 32 33 35 36 37 39 40 42 43 44 45 46 46 47 48 49 50 51 52 52 52 53 54 54 55 55 56 56 57 58 58 58 59 58 58 58 57 57 56 55 55 56
31 32 32 31 31 31 31 31 32 33 34 35 37 39 40 41 42 44 45 46 47 48 48 49 50 51 52 53 53 54 54 55 56 56 57 57 58 59 59 60 61 61 61 61 60 60 60 60 59 58 58 59
33 33 34 33 33 33 33 33 34 35 37 38 39 41 42 43 45 46 47 48 49 49 50 51 51 52 53 54 55 55 56 56 57 58 58 59 59 60 61 62 62 63 64 64 63 63 63 63 62 62 62 62
34 35 35 35 34 34 34 35 36 38 39 40 41 43 44 45 47 48 49 49 50 51 51 52 53 54 54 55 56 56 56 57 58 58 59 60 61 62 62 63 64 64 65 65 65 65 66 66 66 65 65 66
35 36 36 36 36 36 36 37 38 40 41 42 43 45 46 47 48 49 50 51 52 52 53 54 54 55 55 56 56 57 57 58 58 59 59 60 61 62 63 64 64 65 65 66 66 67 67 67 67 68 68 69
37 37 37 37 37 37 37 38 40 41 42 43 45 46 48 49 50 51 52 52 53 54 55 55 56 56 56 57 57 58 58 59 60 60 60 61 62 63 64 65 65 65 65 66 67 68 68 68 68 69 70 71
37 38 38 38 38 38 39 40 42 43 44 45 47 48 49 51 52 53 53 54 55 56 57 57 57 58 58 58 59 59 59 60 61 61 62 62 63 64 64 65 65 66 66 66 67 68 69 69 69 69 70 71
39 38 38 38 39 39 40 42 43 45 46 47 49 50 51 52 54 54 55 56 57 58 58 59 59 59 59 60 60 60 61 61 62 63 63 64 65 65 65 66 66 66 66 67 67 68 69 69 69 69 70 72
40 39 40 40 40 41 42 44 45 46 47 49 50 52 53 54 55 56 57 58 59 59 59 60 60 61 61 61 62 62 62 63 63 64 65 66 67 67 67 67 67 67 68 68 68 69 70 70 70 71 72 73
41 40 41 42 42 43 44 46 47 48 49 51 52 53 55 56 57 58 59 60 60 60 61 61 62 63 63 63 63 64 64 64 65 65 66 67 68 69 69 69 69 69 69 69 69 70 71 71 72 73 74 74
42 42 43 44 44 45 46 47 49 50 51 52 54 55 57 58 58 59 60 61 61 62 63 63 63 64 65 65 65 65 66 66 67 67 68 69 70 71 71 71 72 72 72 72 72 72 72 73 74 75 76 76
43 44 45 46 46 47 47 49 50 51 53 54 56 57 58 59 60 61 61 62 63 63 64 64 65 65 66 67 67 67 68 68 69 70 70 71 72 73 73 74 74 74 74 74 74 74 74 75 76 77 77 78
45 46 47 47 48 48 49 50 52 53 54 56 58 59 59 60 61 62 62 63 63 64 65 66 66 67 68 69 69 70 70 70 71 72 73 73 74 74 75 75 76 76 77 77 77 77 77 77 78 78 79 80
46 47 48 49 49 50 51 52 54 55 56 57 59 60 61 61 62 63 63 63 64 65 66 67 68 69 69 70 71 72 72 73 73 74 75 76 76 76 77 77 78 79 79 80 80 80 80 80 81 81 81 82
48 49 50 51 51 53 54 55 56 57 58 58 59 60 61 62 63 63 64 64 65 66 67 68 69 70 71 72 73 73 74 75 75 76 77 78 78 79 79 79 80 81 81 82 83 83 83 83 83 83 84 84
52 52 53 54 55 56 57 58 59 59 59 60 60 61 62 63 63 64 65 66 66 67 68 69 70 71 72 73 74 75 76 76 77 78 79 80 80 81 81 81 82 83 83 84 85 86 87 87 87 86 87 88
56 56 57 57 58 59 61 61 62 62 62 62 62 63 64 64 65 65 66 67 68 69 70 70 71 72 73 74 75 76 77 78 79 80 81 82 83 83 83 83 83 84 85 86 87 89 90 90 90 90 89 90
57 58 59 60 60 61 62 63 63 63 63 64 65 66 66 67 67 67 68 69 70 71 72 72 73 74 75 76 77 78 79 80 81 83 84 84 85 85 85 85 85 86 87 88 89 91 93 93 94 93 93 94
59 59 60 61 62 62 62 63 63 63 64 65 67 68 68 69 69 69 70 71 72 73 74 74 75 76 77 78 79 80 81 82 83 84 85 86 87 87 88 88 88 88 90 92 92 93 95 96 97 97 97 98
58 59 60 61 62 62 62 63 63 64 65 67 68 69 69 70 70 71 72 72 73 74 75 76 77 77 78 79 80 81 83 84 85 85 86 87 88 89 90 91 91 92 93 94 95 96 97 98 99 100 101 102
Wind_Direction
305 304 303 302 300 300 301 302 304 306 308 308 308 309 309 309 308 308 307 306 305 304 304 303 304 305 305 306 306 306 306 305 305 304 304 304 304 303 303 302 302 301 301 301 300 300 300 300 299 299 298 297
303 303 302 301 301 302 304 305 307 308 309 310 310 311 311 311 310 309 308 307 306 306 306 306 306 306 306 306 306 305 305 305 305 305 304 304 303 303 302 302 301 301 301 300 300 300 300 300 300 299 299 298
302 302 301 301 303 306 307 308 309 310 311 312 313 314 313 313 312 311 310 309 308 307 307 306 306 306 305 305 305 304 304 304 304 304 303 303 302 302 301 301 300 300 299 299 299 299 299 299 298 298 298 297
301 301 301 304 307 309 311 312 312 313 314 315 314 314 313 312 311 310 309 308 307 306 306 305 305 304 304 304 303 303 303 303 302 302 302 301 301 300 299 299 298 298 297 297 297 297 297 296 296 296 295 295
301 302 305 308 311 313 314 314 314 314 314 314 313 312 311 310 308 307 307 306 305 305 304 304 303 303 303 303 302 302 302 301 301 300 300 299 298 298 297 296 296 296 295 295 295 295 295 294 294 293 293 293
303 305 309 311 313 314 314 313 313 312 311 310 308 307 306 306 305 305 304 304 303 303 303 303 302 302 302 302 301 301 301 300 300 299 298 297 296 296 295 295 295 294 294 294 294 294 293 293 292 292 291 291
306 308 310 312 313 312 311 310 309 308 307 305 304 304 304 304 304 304 304 303 303 303 303 303 302 302 302 301 301 300 300 299 298 297 297 296 295 295 294 294 293 293 293 293 293 292 292 291 291 290 289 289
308 309 310 310 309 308 307 306 304 304 303 303 303 304 304 304 304 305 305 305 305 304 304 303 303 302 302 301 301 300 299 298 297 297 296 295 294 294 293 293 292 292 292 292 291 291 290 289 289 288 288 288
308 307 307 306 305 305 304 303 302 303 303 303 304 305 305 306 306 306 306 306 305 304 304 303 303 302 301 300 300 298 298 297 296 296 295 295 294 293 293 292 292 292 291 291 290 289 288 287 287 286 286 286
305 304 304 303 303 302 302 301 301 302 303 304 305 306 307 308 308 307 307 306 305 304 304 303 302 301 300 299 298 297 297 297 296 296 296 295 295 294 293 293 293 292 292 291 290 289 287 286 285 284 284 284
301 301 301 301 300 300 300 300 300 301 302 304 306 307 307 308 308 307 306 305 305 305 304 303 303 302 301 300 299 298 298 298 298 298 298 297 297 296 295 295 294 293 293 292 290 288 286 285 284 283 282 282
300 301 300 299 298 298 298 298 299 301 303 305 306 306 307 308 307 307 306 305 305 305 305 304 304 303 302 302 301 300 301 301 301 300 300 300 299 298 298 297 296 295 294 293 291 289 286 284 283 282 281 280
302 302 301 299 298 298 297 298 299 301 303 305 306 306 307 308 307 306 305 305 305 305 305 305 304 303 303 303 302 302 302 303 302 302 301 301 301 300 299 299 298 297 296 294 293 290 288 285 283 282 281 280
304 303 302 301 300 299 299 300 301 303 304 305 306 307 307 307 306 305 305 305 304 304 304 304 303 303 303 303 303 303 303 303 302 302 302 302 301 300 300 300 299 298 297 296 294 292 290 287 285 283 282 281
304 303 302 301 300 299 300 301 302 303 304 306 306 306 306 306 305 304 304 304 304 304 303 303 303 303 303 303 303 303 303 302 302 302 302 301 301 301 301 300 300 299 298 297 296 294 292 290 288 286 284 283
303 302 301 300 299 299 300 301 302 303 304 305 305 305 305 304 303 303 304 304 303 303 303 303 303 303 303 303 303 302 302 302 301 301 301 301 301 301 301 301 300 299 298 297 296 294 293 292 291 289 287 286
302 301 301 300 299 299 299 300 301 302 303 304 303 303 303 303 303 303 303 303 303 302 302 303 303 303 303 302 302 302 301 300 300 300 300 300 300 300 300 300 300 299 298 297 296 295 294 293 292 291 290 288
301 300 299 299 298 299 299 300 300 301 302 302 302 303 303 303 303 303 303 303 302 302 302 302 303 302 302 301 301 300 300 299 299 299 299 299 299 299 299 299 299 298 298 297 296 295 295 294 294 293 291 290
300 299 298 298 298 298 299 299 299 300 301 302 302 302 303 303 302 303 303 302 302 302 303 302 302 301 300 299 299 299 299 298 298 298 298 298 297 297 297 297 297 297 297 296 296 296 295 295 294 293 292 290
299 298 297 297 297 297 298 298 298 300 301 302 302 302 302 302 302 302 302 302 302 302 302 301 300 299 299 298 298 298 298 298 297 297 296 296 296 296 296 295 295 295 295 295 295 295 295 294 293 292 291 290
298 298 297 296 297 297 298 298 299 301 302 302 302 302 302 302 302 302 302 302 302 301 300 300 299 298 298 298 297 297 297 296 296 295 295 295 295 295 294 294 294 294 294 294 294 293 293 293 292 292 291 290
298 297 297 297 297 298 299 299 300 301 302 302 302 302 301 302 302 302 302 301 301 300 299 299 299 298 297 296 296 296 295 295 295 294 294 294 294 294 294 294 294 293 293 293 292 292 291 291 291 290 290 289
297 297 296 297 298 298 299 300 300 301 302 302 302 302 302 302 302 301 301 300 300 299 299 298 298 297 296 295 295 294 294 294 294 294 294 294 294 294 294 294 293 293 292 292 292 291 291 290 290 289 289 289
297 297 297 297 297 298 299 300 301 302 302 302 302 302 301 301 301 300 300 300 299 299 298 298 297 296 295 295 294 294 294 294 294 294 294 294 294 294 294 294 293 293 292 292 291 291 290 290 290 289 288 288
296 296 296 296 297 298 300 301 302 302 302 301 301 301 301 301 300 300 300 299 299 299 298 298 297 296 295 295 294 294 294 294 294 294 294 294 294 294 294 294 293 293 292 291 291 290 290 290 289 288 288 287
296 296 296 297 297 298 300 301 301 301 301 301 300 300 300 300 300 300 299 299 299 299 298 298 297 296 295 295 294 294 294 294 294 294 294 294 294 294 294 294 293 293 292 291 291 290 290 289 289 288 288 287
301 301 300 300 299 300 300 301 301 301 300 300 300 300 300 300 300 300 300 300 299 299 299 298 297 297 296 295 295 294 294 294 294 294 294 294 294 294 294 294 293 292 292 292 291 290 290 290 289 288 288 287
305 304 303 302 301 301 301 301 300 300 300 299 299 299 300 300 300 300 300 300 300 299 299 298 298 297 297 296 295 295 294 294 294 294 294 295 294 294 294 293 293 292 292 292 291 291 290 290 289 288 288 287
305 304 303 302 301 301 301 300 300 299 300 300 300 300 300 300 300 300 300 300 300 300 300 299 299 298 297 297 296 295 295 295 295 295 295 295 294 294 293 293 292 292 292 291 291 291 290 290 289 289 288 287
306 305 303 302 301 301 300 300 299 299 299 300 300 300 300 300 300 300 300 300 300 300 300 300 299 299 298 297 297 296 295 295 295 295 295 294 294 294 294 293 293 293 292 292 291 291 291 291 290 289 288 287
307 306 304 303 302 301 301 300 300 300 299 299 299 299 299 299 299 299 300 300 300 301 301 300 300 299 298 297 296 296 295 295 295 294 294 294 294 294 294 294 293 293 292 292 291 291 290 290 290 290 289 288